Overview Statistics Trail Chart Weather Telemetry Raw packets
 

This is the latest recevied weather packets stored in our database for station/object ENBN. If no packets are shown the sender has not sent any weather packets the latest 10 day(s).

<< 1 2 3 4 5 >>
Time Temp. Humidity Pressure Rain* Wind** Luminosity Snow
1788625987 15.56° C 67% 1004 hPa - - - -
1788624187 15.56° C 63% 1003 hPa - - - -
1788622388 15.56° C 63% 1003 hPa - - - -
1788620586 16.67° C 59% 1003 hPa - - - -
1788618787 16.67° C 55% 1002 hPa - - - -
1788616987 15.56° C 63% 1002 hPa - - - -
1788615187 16.67° C 67% 1002 hPa - - - -
1788613386 16.67° C 55% 1002 hPa - - - -
1788611587 15.56° C 58% 1001 hPa - - - -
1788609787 16.67° C 55% 1001 hPa - - - -
1788607987 18.89° C 63% 1001 hPa - - - -
1788606188 16.67° C 59% 1001 hPa - - - -
1788604386 15° C 67% 1000 hPa - - - -
1788602588 15.56° C 63% 1000 hPa - - - -
1788600787 15.56° C 67% 1000 hPa - - - -
1788598987 15.56° C 67% 1000 hPa - - - -
1788597186 15° C 72% 1000 hPa - - - -
1788595386 15° C 76% 999 hPa - - - -
1788591786 15° C 72% 999 hPa - - - -
1788588186 12.78° C 76% 999 hPa - - - -
1788586387 12.78° C 76% 998 hPa - - - -
1788584586 12.78° C 76% 998 hPa - - - -
1788582786 12.78° C 76% 998 hPa - - - -
1788580986 12.78° C 76% 998 hPa - - - -
1788579186 11.67° C 81% 998 hPa - - - -

* Rain since midnight (hover to see other rain measurements)
** Current wind speed in m/s (hover to see current wind gust speed)